Theta_e
329 328 328 324 325 327 321 319 303 308 305 299 298 300 298 304 302 303 303 304 305 307 309 309 320 317 312 311 312 314 316 312 311 307 309 325 333 340 342 341 343 344 344 346 348 348 348 347 347 347 346 345 345 344 343 342 341 341 340 339 340 339 339 343 347 347 347 347 347 347 347 345 344 343 344 343 343 343 341 341 340 343 342 341 340 340 339 338 338 338 338 339 339 338 339 339 339
326 326 326 328 323 320 312 313 306 302 302 298 299 300 301 303 303 303 304 306 306 307 308 315 319 317 314 315 316 316 317 318 318 320 327 331 335 337 340 341 343 342 344 347 348 347 348 347 346 346 346 345 344 343 342 342 342 341 339 339 340 340 340 340 346 346 347 347 347 346 345 345 343 342 342 343 341 340 340 340 342 343 342 342 341 340 339 339 339 339 338 339 337 338 338 338 339
324 326 323 324 321 320 315 314 301 300 298 295 299 300 302 302 303 305 306 305 307 310 314 316 316 313 312 311 311 311 313 322 323 328 329 333 330 333 339 342 344 344 344 347 347 346 347 347 344 346 346 345 345 344 344 343 342 341 341 341 341 341 341 344 345 344 345 347 346 346 344 343 343 343 342 341 341 339 338 341 340 340 343 343 343 341 338 338 341 340 339 337 338 338 338 338 339
330 325 326 323 315 318 310 308 305 301 297 298 297 301 301 303 304 305 305 310 312 313 314 314 313 314 311 307 312 312 318 318 326 328 326 329 333 337 339 341 345 343 346 347 347 347 347 345 343 347 346 345 344 344 343 342 342 341 341 341 341 340 342 346 344 344 344 346 346 347 345 344 342 341 341 340 340 340 340 339 339 340 340 340 341 341 341 340 337 336 337 339 339 339 338 339 339
325 323 326 319 315 309 309 305 303 302 296 298 297 301 302 305 305 305 307 312 310 309 310 313 313 317 317 314 314 312 316 326 326 331 330 334 340 339 340 343 343 342 344 347 347 347 348 343 343 346 346 345 345 345 344 343 342 341 341 341 340 339 341 342 343 343 343 345 347 345 343 342 341 341 340 339 338 338 337 338 340 340 341 339 337 340 340 339 338 338 339 340 340 340 339 338 339
323 322 323 321 309 312 309 302 301 300 301 302 299 301 303 305 304 307 309 311 310 310 308 311 310 312 312 318 318 315 324 317 327 330 333 332 337 339 341 344 342 341 344 347 348 349 349 341 343 345 346 346 345 345 344 343 342 341 341 340 340 339 340 344 343 343 343 344 346 345 343 340 340 340 339 338 337 336 336 339 339 340 340 340 340 340 341 341 341 339 338 338 338 338 339 338 338
321 319 318 315 311 313 304 302 300 301 300 300 301 301 303 304 306 309 307 307 307 306 305 308 310 312 309 316 320 325 328 329 327 330 336 337 340 340 341 341 342 341 344 346 348 349 350 341 345 347 347 346 345 345 344 344 343 341 341 340 340 339 342 344 343 343 343 344 345 345 342 340 339 339 338 338 337 336 336 337 338 338 340 341 341 341 342 342 341 340 340 340 340 340 339 338 339
322 316 315 309 305 306 302 301 301 302 300 299 300 301 303 304 307 308 307 307 305 306 304 306 311 310 309 315 316 326 328 330 333 336 337 338 339 340 342 341 341 340 343 346 348 349 347 341 345 346 346 346 346 345 344 345 344 342 341 340 340 340 342 345 345 344 344 345 344 344 341 338 338 338 337 337 336 336 337 337 338 340 342 341 341 342 341 340 339 339 338 338 339 338 339 339 338
318 315 312 311 303 304 300 300 301 299 300 300 302 302 304 305 306 308 306 306 304 304 307 310 308 303 309 312 317 325 328 331 333 335 337 338 338 340 340 340 340 341 343 345 346 348 350 341 344 346 345 346 346 346 345 345 344 342 341 340 340 340 340 341 342 342 343 344 344 343 341 339 337 337 336 337 336 338 337 337 337 340 341 341 340 339 339 338 338 338 339 340 339 339 338 338 338
314 314 307 307 306 300 299 299 299 300 301 302 302 303 304 303 305 308 307 305 305 304 308 310 308 304 311 310 315 323 327 331 333 335 337 338 339 339 339 340 341 342 343 344 345 347 348 346 340 342 343 345 347 346 345 345 344 343 342 341 340 340 339 340 343 343 342 342 342 342 342 338 337 337 336 336 338 337 337 336 337 338 338 338 339 339 338 338 339 340 339 338 338 337 337 337 338
307 310 312 305 301 299 298 299 300 300 301 302 302 302 304 304 306 307 308 305 304 306 307 307 305 307 311 312 318 325 328 330 333 332 336 338 339 338 338 341 342 343 342 345 345 346 347 347 342 339 342 342 344 346 346 345 344 343 343 341 341 340 340 340 342 341 341 341 341 340 341 339 337 336 335 335 336 335 335 336 337 337 338 338 338 339 338 338 338 338 338 338 337 337 337 337 337
306 307 309 302 300 300 299 299 299 301 302 302 303 303 304 305 306 305 304 303 304 304 307 308 306 313 308 309 315 323 327 330 333 335 337 339 337 338 339 340 342 342 344 344 345 345 347 348 349 343 337 338 341 343 344 344 344 343 343 342 341 341 340 339 342 341 340 340 339 341 341 339 337 335 335 334 336 339 335 335 337 337 337 339 340 339 338 338 338 337 338 337 336 336 337 336 337
310 310 305 302 300 300 299 298 299 301 302 303 304 303 305 304 305 307 306 304 304 305 306 310 312 312 304 307 317 322 326 331 335 336 338 338 338 338 339 339 341 342 343 344 344 344 347 347 348 348 343 334 335 337 339 340 342 344 344 343 342 342 342 341 341 339 338 339 340 342 341 341 339 336 335 335 339 339 338 337 338 336 336 337 336 336 337 338 338 337 336 335 336 337 336 337 336
310 311 306 301 299 300 299 300 300 299 300 304 304 303 303 304 306 306 306 303 304 305 305 306 312 311 309 309 313 318 326 334 334 337 338 338 338 338 338 339 341 341 344 343 343 344 345 346 346 349 347 347 347 340 334 337 340 342 342 342 342 342 342 342 342 343 341 342 342 341 340 340 339 339 339 339 338 338 337 337 337 335 334 337 338 338 337 337 336 336 335 335 336 336 336 336 335
312 308 306 303 300 299 299 298 299 299 300 304 302 303 302 303 302 303 306 304 304 305 307 309 313 308 303 304 308 317 329 333 334 337 337 337 337 337 338 339 339 341 342 342 343 343 343 346 346 346 346 346 345 344 345 345 334 338 339 339 340 340 340 340 339 337 338 340 339 338 337 335 334 334 335 335 335 335 334 333 337 338 334 338 337 337 336 336 335 335 335 336 335 335 335 334 333
314 310 306 302 299 300 300 298 297 300 300 304 300 301 304 302 301 303 304 304 304 306 306 306 309 307 306 306 314 322 332 333 334 336 336 335 336 336 337 337 337 339 341 341 341 343 344 344 345 345 345 345 346 346 345 346 336 332 335 336 337 338 337 337 334 332 331 333 333 332 329 334 331 335 326 332 329 333 332 331 332 334 336 336 336 335 335 335 335 335 335 335 335 334 333 332 331
312 313 302 301 298 298 301 300 300 297 301 302 298 301 303 302 301 301 301 303 304 305 305 309 308 313 310 311 316 322 332 333 333 334 334 333 334 333 335 335 335 337 339 340 341 341 343 343 343 344 344 344 345 345 345 345 344 331 332 331 332 334 334 333 329 324 323 323 326 323 327 337 337 336 336 334 327 337 324 326 331 335 337 337 336 334 335 335 335 335 335 334 332 330 327 325 326
313 304 302 299 302 300 303 301 302 302 301 302 299 302 305 301 301 302 303 303 304 303 304 307 307 310 316 319 319 320 329 331 332 331 332 331 333 331 332 333 333 333 336 337 340 341 342 342 342 343 343 344 345 344 344 344 345 339 343 343 343 337 330 327 334 338 334 338 324 333 338 336 335 336 335 332 334 335 333 324 329 334 336 335 335 334 334 334 334 334 333 331 330 327 325 331 327
307 303 303 300 302 303 303 303 303 302 302 303 302 302 303 304 303 302 303 302 303 302 304 305 307 311 315 318 319 322 326 331 330 331 330 330 331 330 331 332 333 333 334 336 338 340 341 341 342 342 343 343 343 344 344 344 344 343 342 342 342 333 337 340 340 338 338 338 338 338 335 335 335 334 334 332 334 326 333 324 328 330 332 332 335 335 334 334 333 333 330 328 326 324 331 332 332
303 306 300 302 306 303 301 301 302 300 301 302 301 301 300 301 302 303 302 302 302 302 303 303 304 306 311 318 318 324 326 330 331 331 331 331 332 331 331 331 332 333 334 335 337 339 341 341 341 342 342 343 342 342 343 343 343 342 341 341 340 339 339 339 340 339 339 338 338 336 334 336 335 334 328 326 329 335 332 323 323 324 326 326 329 332 331 331 329 327 325 323 325 327 332 330 331
304 304 302 304 301 302 301 300 300 299 299 303 302 299 300 300 302 303 303 301 302 304 306 305 305 306 310 319 320 324 325 328 330 331 330 331 332 333 333 333 333 334 336 336 337 337 339 340 341 342 342 342 342 341 341 341 342 341 341 340 340 339 338 337 338 339 338 338 337 335 336 336 335 333 332 331 331 332 332 334 333 333 334 335 327 333 332 331 330 330 327 326 330 330 330 330 330
306 302 302 301 299 303 299 299 297 298 297 301 300 300 302 301 301 302 303 301 302 304 306 307 307 308 312 317 320 324 325 327 329 330 330 331 331 332 333 334 335 336 336 335 335 337 338 340 340 341 342 341 341 341 341 341 341 340 339 339 339 339 338 337 336 337 337 338 336 336 335 335 334 333 333 332 331 332 332 330 330 330 331 332 332 331 330 330 329 329 329 329 328 328 329 329 329
301 300 299 300 300 301 299 299 297 296 300 301 300 302 301 301 301 300 302 303 304 303 302 303 303 305 317 321 321 322 324 325 327 328 330 330 331 332 333 334 333 333 335 335 336 337 338 339 340 341 340 341 341 342 341 341 340 340 339 339 338 337 337 337 336 335 336 336 336 336 333 332 332 331 332 332 330 331 331 331 330 330 330 329 330 329 329 329 328 326 327 327 326 326 326 327 327
304 302 299 299 298 300 297 298 294 296 298 300 300 300 302 300 300 299 300 305 305 301 300 303 301 309 319 319 320 323 324 325 327 329 330 331 332 332 334 333 334 335 335 335 336 337 337 338 340 340 340 340 340 341 340 340 340 339 339 339 338 335 336 336 336 336 336 335 335 334 332 333 332 331 331 331 331 331 330 331 331 330 329 329 330 329 328 327 325 325 326 326 325 325 325 326 326
302 301 299 298 298 298 297 295 296 295 297 298 298 301 299 300 300 297 301 305 305 302 303 308 311 314 318 321 320 323 324 326 327 329 329 331 332 332 332 333 334 334 333 334 335 336 337 338 339 339 339 339 340 340 339 340 340 339 339 339 338 335 336 336 336 336 335 334 334 335 333 332 331 331 331 330 331 330 331 331 330 329 329 328 328 327 327 325 324 324 325 325 325 325 325 325 324
303 301 300 299 299 298 297 298 297 297 298 298 300 300 299 298 297 298 304 303 300 299 305 312 316 315 317 319 321 322 324 325 327 326 327 330 331 329 330 331 331 331 333 334 335 336 337 338 338 338 339 339 339 339 339 340 340 339 338 338 338 337 336 336 336 335 334 334 333 333 333 332 331 330 330 330 330 330 331 330 329 329 327 327 327 326 325 324 324 323 324 324 324 324 324 324 324
302 299 300 300 297 299 298 299 298 298 299 297 300 299 299 298 297 300 301 300 298 303 305 310 314 311 317 320 321 322 323 325 326 327 327 327 327 327 328 329 330 331 333 333 334 335 337 337 338 338 339 338 340 339 339 339 339 339 338 339 339 337 337 336 335 334 335 334 333 333 332 333 331 331 330 330 329 330 329 329 328 328 326 326 326 326 325 324 323 323 323 323 323 323 323 322 323
301 300 300 298 298 299 298 299 298 300 299 298 300 299 298 299 298 300 302 299 300 302 305 309 310 311 316 319 320 322 323 326 327 327 325 325 325 327 328 329 329 332 332 333 334 335 336 337 337 338 338 338 338 338 338 338 338 339 339 339 339 339 337 336 335 334 332 333 334 334 333 332 331 330 331 330 329 329 328 328 329 327 326 325 325 325 323 324 323 323 322 322 323 323 322 321 322
299 302 298 297 298 299 298 299 299 299 299 299 299 299 297 297 298 303 299 298 300 302 304 307 310 310 313 316 318 320 322 324 326 325 326 327 329 329 329 332 332 331 334 335 335 335 334 337 336 337 338 338 337 338 338 338 339 339 338 338 338 338 338 337 335 334 333 333 332 332 332 332 330 329 329 330 329 329 328 328 328 327 327 324 323 323 322 322 320 320 320 319 320 320 320 320 320
299 299 300 296 298 297 297 298 298 298 299 297 298 293 298 300 302 301 297 298 299 300 302 304 307 310 311 313 315 317 320 322 323 324 327 329 330 330 330 333 333 333 334 335 335 334 334 336 337 338 337 337 337 338 339 339 339 339 338 338 338 338 338 338 336 335 333 332 332 332 331 329 327 328 328 329 329 328 328 328 328 327 326 323 321 321 321 320 320 320 319 318 316 318 319 320 319
298 297 299 297 295 295 296 298 298 298 297 297 298 294 297 298 298 298 298 298 299 301 303 303 302 304 307 311 312 314 318 320 321 324 326 328 329 331 331 332 333 334 334 334 334 335 334 335 335 335 337 337 337 337 337 338 339 339 338 338 337 338 338 337 337 337 334 333 333 332 332 330 327 327 327 326 326 325 325 326 327 327 326 323 321 319 320 320 320 319 318 317 318 317 319 320 319
297 295 293 295 294 296 296 297 297 298 298 298 297 294 296 300 300 297 297 298 299 301 302 303 302 302 302 304 307 310 313 318 320 322 324 326 327 328 329 330 331 332 332 333 334 335 334 334 335 335 336 337 337 336 336 337 339 340 339 332 338 338 337 337 338 338 336 335 333 333 332 332 331 330 329 328 326 326 325 325 326 327 326 322 321 318 318 318 318 319 318 319 317 317 318 318 318
295 295 296 293 293 295 295 296 296 296 298 299 297 295 296 297 299 298 296 298 299 300 302 303 303 303 303 302 303 304 307 310 313 317 320 322 324 325 326 327 329 330 331 332 333 333 334 335 333 334 333 335 336 337 337 336 336 338 339 338 338 338 338 338 338 338 337 336 335 334 334 333 333 333 332 330 328 328 327 327 328 328 326 322 321 318 317 319 318 317 317 317 318 317 317 317 316
294 295 294 294 292 294 293 295 297 298 298 297 297 295 297 299 300 300 298 297 298 299 301 302 303 304 304 304 303 303 304 306 307 310 313 318 322 323 325 323 327 328 330 331 332 332 333 334 334 333 334 334 333 334 337 338 336 335 336 337 336 338 338 339 339 339 337 337 336 334 334 333 332 332 331 330 329 330 330 329 328 326 323 321 320 319 318 319 319 318 317 316 316 316 315 315 315
292 291 290 290 290 292 292 294 295 296 296 297 297 295 297 299 301 301 301 298 297 299 301 302 303 303 304 304 304 303 304 305 306 309 310 311 316 320 323 324 325 326 327 328 330 331 332 333 333 333 333 334 333 334 334 336 338 339 338 336 336 336 336 337 339 339 339 339 337 336 334 333 331 330 329 329 329 330 329 327 326 325 323 321 320 319 319 318 317 317 316 316 314 314 314 315 315
295 293 292 293 291 292 292 294 293 295 296 295 296 295 297 299 300 302 302 299 299 300 301 301 301 301 302 303 304 304 306 305 308 308 308 307 308 310 315 321 323 325 325 325 326 328 330 331 332 332 332 333 333 333 333 333 333 335 333 335 335 334 335 335 338 338 337 337 337 335 334 333 331 329 330 330 328 326 326 325 324 324 323 322 321 319 318 316 314 313 314 314 312 310 309 311 311
295 295 295 293 294 293 292 292 294 293 295 296 297 297 297 298 299 301 302 300 299 300 300 302 303 304 304 304 303 305 306 306 313 308 308 308 308 307 308 312 317 321 323 324 324 325 327 328 329 329 331 331 331 331 332 331 330 330 331 333 333 334 334 335 335 336 336 337 337 335 334 332 331 330 330 331 328 323 324 324 322 321 321 320 320 319 318 317 314 311 310 310 310 309 308 308 307
294 293 293 290 293 292 292 293 293 294 294 296 292 294 296 298 300 301 303 300 299 300 302 303 303 304 304 305 305 306 306 307 305 305 305 305 306 308 306 307 309 313 317 321 322 324 325 326 327 328 330 330 329 330 330 331 331 331 330 329 332 334 334 333 333 333 334 336 336 336 336 335 334 334 332 332 330 329 326 325 323 321 319 318 320 320 316 311 311 309 309 309 309 308 307 307 304
294 293 293 292 291 293 292 293 293 294 293 295 293 294 297 299 300 302 302 301 302 303 303 303 303 304 304 304 304 304 304 304 305 304 305 304 307 308 306 307 307 309 312 316 320 323 323 324 325 326 328 328 329 329 329 329 331 331 331 330 330 330 334 336 336 336 336 334 334 335 335 337 336 335 333 329 328 329 328 325 323 323 321 319 317 316 315 314 312 311 310 310 308 308 307 306 304
294 293 291 290 292 290 290 293 294 293 293 294 295 294 297 300 301 301 303 302 301 300 299 300 301 301 302 303 303 303 302 304 305 305 305 304 305 305 304 305 306 307 307 309 313 318 320 322 323 324 325 327 327 328 327 330 330 332 332 332 333 333 330 334 334 335 335 335 334 336 337 337 335 332 332 330 329 328 327 325 326 325 322 319 317 316 316 315 314 313 310 309 309 306 305 304 305
293 296 295 291 289 291 294 292 292 290 291 290 293 294 296 298 297 298 296 292 292 296 295 296 297 299 300 300 299 300 300 302 303 304 305 304 303 304 305 305 304 305 307 307 309 312 315 319 321 323 324 325 326 326 326 328 329 330 330 330 330 328 326 327 327 327 329 331 332 333 333 335 336 335 334 332 328 329 328 327 327 325 321 320 319 319 319 318 316 314 311 309 308 308 306 304 303
293 294 296 294 295 292 290 292 293 293 293 292 291 289 291 295 296 296 297 295 296 296 296 300 299 298 298 298 300 302 301 301 300 301 303 303 302 303 304 304 304 305 305 307 309 310 312 315 318 321 322 323 324 325 326 326 326 325 325 323 322 323 323 323 323 324 327 328 329 333 335 336 335 335 335 334 331 326 327 327 326 325 322 320 319 320 321 319 315 312 311 311 310 310 311 306 304
291 292 295 293 294 295 294 292 294 290 288 291 290 288 288 296 295 297 295 294 296 298 297 298 299 300 301 302 303 303 304 304 303 300 299 299 301 302 303 305 307 306 306 306 306 307 310 314 317 319 320 322 324 325 325 324 324 324 324 323 324 323 322 323 326 327 326 327 329 330 331 332 333 333 334 335 333 330 329 329 327 325 325 323 320 319 318 317 316 315 314 313 313 311 310 308 307
291 291 293 295 295 295 295 295 295 292 292 292 291 292 288 289 295 297 292 292 296 298 297 299 300 300 301 301 301 302 303 303 302 300 300 301 302 304 307 307 307 307 307 306 306 307 309 312 315 317 319 321 323 323 323 324 323 323 323 323 323 323 323 323 325 325 326 327 327 327 328 329 331 331 331 333 333 333 331 330 329 327 326 326 322 319 318 318 318 318 315 313 312 311 310 308 307
292 288 293 296 297 297 295 296 292 291 291 289 291 294 287 288 293 293 293 294 297 297 296 299 300 300 300 300 301 301 301 302 299 303 305 305 306 306 306 307 306 306 307 309 308 308 310 313 315 317 319 320 321 322 322 323 323 324 323 323 322 323 323 324 325 325 325 325 324 325 326 327 328 329 330 331 332 332 330 330 329 328 327 326 323 322 321 320 318 317 315 313 310 309 308 308 309
290 290 292 291 293 293 295 293 293 290 288 286 289 290 286 288 296 295 293 292 294 297 296 298 299 299 299 300 300 301 302 303 304 303 304 305 305 305 305 305 307 307 307 308 308 310 311 313 315 316 318 319 319 320 321 322 323 323 322 322 322 322 322 322 323 322 322 322 322 323 324 324 325 326 327 328 328 329 330 330 330 329 327 325 321 323 321 320 319 319 319 317 313 310 309 309 308
292 294 296 295 294 293 292 291 290 289 284 287 286 285 286 284 294 294 294 295 296 296 297 298 299 300 299 299 299 300 301 303 304 304 304 304 303 304 305 306 306 307 308 310 311 312 313 315 315 316 316 316 317 319 320 320 322 322 322 322 322 321 322 321 319 318 318 317 316 319 321 321 323 323 324 325 325 325 325 325 324 326 327 327 324 323 322 322 321 321 320 318 315 311 309 308 307
296 295 293 293 291 293 291 289 290 284 283 284 284 285 287 283 289 294 294 292 294 298 297 298 298 298 299 299 300 300 300 302 304 305 305 305 305 305 307 307 307 308 309 310 311 312 314 315 317 314 311 312 314 316 317 318 319 319 321 321 321 321 320 320 318 318 318 317 317 317 318 318 318 319 320 321 322 323 323 324 324 323 323 323 323 323 323 322 322 321 320 317 315 313 312 309 308
295 295 294 288 285 286 282 286 282 283 283 285 285 285 284 285 292 294 294 294 294 295 299 299 297 297 299 299 300 300 301 302 304 305 306 306 307 307 307 307 308 308 308 309 309 311 312 314 316 316 313 312 312 313 315 316 316 317 317 318 319 320 319 320 319 319 320 319 319 318 317 316 317 316 316 317 319 321 321 321 322 321 321 321 321 321 320 319 319 319 318 317 317 315 313 311 309
293 292 290 286 282 281 279 281 280 280 283 283 285 287 283 290 292 297 296 297 296 295 296 298 297 297 297 298 299 300 303 303 304 305 306 306 306 306 306 306 306 307 307 308 308 309 310 311 313 314 311 311 312 314 316 316 316 317 317 317 318 318 318 318 318 318 319 319 318 318 318 317 317 317 317 317 318 319 319 319 320 320 321 321 321 321 321 320 318 317 317 316 315 315 314 312 310
292 298 294 289 288 282 278 280 279 282 283 283 285 283 285 286 291 294 295 294 293 293 292 294 294 295 296 297 297 299 303 303 305 305 305 305 305 306 306 306 306 305 306 307 308 308 310 310 311 310 309 309 310 312 313 314 315 315 315 315 316 316 316 316 316 317 316 316 316 315 315 316 315 316 317 317 318 318 317 317 318 318 318 318 319 319 319 319 319 318 318 317 317 316 314 313 311
292 291 294 289 288 293 284 283 283 282 282 281 282 284 290 292 295 294 294 293 292 293 293 292 296 296 296 298 302 303 303 303 304 304 304 304 304 305 305 305 305 305 306 306 306 308 309 308 308 308 308 308 308 308 310 310 311 311 310 311 311 311 312 312 313 313 313 314 314 313 314 314 315 315 316 316 316 316 316 316 316 316 316 316 317 317 317 317 316 316 316 316 315 316 314 313 312
290 290 287 290 293 288 279 279 279 278 281 282 287 287 291 294 295 296 293 292 293 292 293 294 297 296 299 302 302 302 303 303 304 304 304 303 303 303 303 303 303 303 303 303 303 304 305 306 306 306 305 306 306 306 307 307 308 308 308 308 309 309 310 310 311 312 312 312 311 311 311 312 313 313 313 314 313 313 313 313 314 314 314 314 314 315 315 315 315 314 314 314 313 314 312 312 312
292 286 291 290 294 295 289 283 281 282 280 283 283 284 287 287 286 294 293 293 294 294 294 295 295 298 301 302 302 302 302 302 301 301 301 302 302 301 301 301 301 301 301 301 301 301 302 304 304 304 304 304 304 305 306 306 307 307 308 308 308 307 308 308 309 309 309 309 310 310 310 310 310 311 311 311 311 311 311 309 310 311 312 313 312 312 312 313 313 312 312 312 312 313 312 311 311
293 292 298 291 285 284 286 286 278 279 278 281 283 282 283 287 289 292 291 293 294 294 294 294 295 299 301 301 301 301 301 301 301 301 302 302 302 301 301 300 300 300 300 301 301 302 302 302 302 303 302 302 303 304 304 304 305 306 306 306 306 306 307 307 307 307 307 307 308 308 308 309 309 309 309 309 309 309 309 309 310 309 310 310 311 310 310 310 310 310 310 309 310 310 309 309 310
293 292 291 291 291 290 285 285 286 286 282 278 282 280 284 290 291 293 294 295 297 295 292 294 296 300 300 301 301 301 301 302 301 301 301 301 300 300 299 299 299 300 300 301 301 302 301 301 302 302 302 302 302 302 303 303 304 305 305 305 305 305 305 305 305 306 306 306 307 307 307 307 308 307 307 307 307 307 308 307 308 308 308 308 309 309 308 307 307 308 308 307 308 308 307 307 307
287 289 288 290 288 290 290 287 285 285 282 280 281 280 285 292 293 294 295 294 295 296 294 296 297 301 301 301 301 301 302 301 301 301 301 300 300 299 299 298 299 299 300 300 301 300 300 301 300 301 301 301 301 301 302 302 303 303 304 303 303 303 303 304 304 304 304 305 305 304 305 305 304 305 306 305 305 306 306 306 306 306 306 306 307 307 307 306 305 304 305 306 306 306 305 305 306
291 290 287 290 286 285 283 282 284 281 284 279 278 280 288 295 290 293 295 293 294 295 297 296 297 300 301 301 301 302 301 301 301 300 300 299 299 298 298 298 299 299 299 299 299 300 299 299 299 300 300 299 300 300 300 301 302 302 301 301 301 301 301 301 302 302 302 302 302 302 302 302 302 303 303 303 303 304 304 305 304 304 304 305 305 305 305 305 303 303 303 304 304 304 304 303 303
Wind_Speed
1 1 1 2 2 2 2 2 4 2 3 1 1 3 4 1 1 4 4 5 6 3 1 2 5 7 3 3 7 5 4 3 6 5 5 4 1 8 7 5 9 10 10 7 8 9 9 8 8 5 10 10 11 11 10 10 11 11 10 10 12 10 8 10 15 14 14 14 14 15 16 16 15 15 15 14 14 14 13 13 13 17 17 16 16 16 16 16 16 16 16 16 15 15 15 15 14
1 0 0 1 0 1 2 3 1 2 2 2 2 1 4 4 2 7 7 7 3 4 2 3 5 1 2 4 1 4 5 7 6 5 4 4 8 9 6 5 11 12 9 8 8 9 9 9 5 3 9 10 11 11 10 10 10 10 11 10 10 10 9 8 14 13 14 13 13 15 16 15 14 13 14 14 14 13 12 11 15 15 15 16 16 17 16 16 16 16 16 16 16 15 15 15 15
2 1 2 3 2 2 3 1 4 0 2 2 4 3 4 6 6 6 5 5 5 6 4 5 4 2 3 3 5 4 5 2 3 3 6 7 11 9 7 8 10 10 10 7 7 8 7 9 5 4 11 10 11 10 10 10 9 9 9 11 11 10 8 12 11 11 13 14 13 15 15 14 13 14 14 13 13 13 11 14 14 13 16 16 16 16 15 15 15 15 15 15 15 15 15 15 15
1 2 2 2 2 2 1 2 2 2 3 2 1 5 7 6 5 6 6 6 7 7 5 7 8 1 4 4 3 0 5 4 2 6 6 9 3 10 9 11 11 10 8 6 7 7 7 9 5 5 9 10 11 10 10 10 9 9 9 10 10 8 10 12 11 10 11 14 13 15 15 14 13 13 13 14 12 11 12 13 13 13 14 14 14 14 15 15 13 13 14 15 15 14 14 14 15
1 2 3 1 2 2 1 2 1 2 2 2 2 5 7 5 6 7 6 7 7 4 4 5 2 3 2 3 2 3 4 5 4 2 6 7 7 9 10 11 10 10 9 8 8 7 7 10 6 4 10 10 10 10 10 10 9 9 9 9 8 8 10 10 10 10 11 13 14 15 15 13 12 12 12 12 13 11 11 11 13 13 13 12 12 14 13 14 13 13 14 14 15 15 14 15 15
1 1 4 1 1 2 2 3 3 4 4 2 1 4 7 5 8 6 9 8 5 2 3 4 2 3 3 1 3 1 3 3 6 4 9 8 10 11 12 10 10 9 9 8 8 7 8 8 6 5 9 10 10 11 10 10 10 9 9 8 7 6 8 11 10 10 11 12 14 14 14 13 12 11 12 12 12 11 10 12 12 12 11 12 13 13 14 14 14 13 13 14 14 14 14 14 14
1 2 3 4 4 2 3 2 1 2 3 2 2 2 7 7 7 11 10 7 2 1 1 2 1 1 3 3 3 1 3 0 6 5 6 11 11 12 12 10 9 10 9 7 7 7 10 9 6 8 8 8 10 10 10 10 10 10 9 8 7 7 9 11 10 10 11 11 12 14 13 13 12 11 11 11 10 10 12 11 11 9 12 13 12 13 14 14 14 14 13 14 14 14 14 14 14
1 3 2 3 2 2 2 1 2 2 2 2 3 1 4 7 8 10 12 8 7 5 5 1 1 4 3 2 1 5 1 2 3 7 10 12 13 13 12 10 10 10 9 7 7 6 10 8 6 6 8 9 9 9 9 9 9 9 9 8 7 7 9 11 11 11 11 11 12 12 13 12 12 11 10 11 10 10 11 11 10 12 13 12 13 13 14 13 13 13 13 13 13 13 14 14 14
3 2 1 2 3 1 1 2 1 2 1 2 2 3 4 3 6 8 11 2 3 1 4 5 3 4 5 4 1 4 2 2 2 8 11 13 14 14 9 11 11 9 9 7 6 7 10 7 6 6 7 8 8 9 9 9 9 9 9 8 7 7 9 10 11 11 12 11 12 12 13 12 12 11 9 9 10 12 11 10 10 12 12 12 12 12 13 13 13 13 13 13 13 13 13 14 13
2 3 3 0 2 3 1 2 4 3 0 1 2 2 4 5 6 5 10 6 3 3 3 4 2 4 4 3 4 4 3 2 5 10 11 13 13 13 12 10 11 10 9 8 7 7 8 9 6 6 7 7 6 8 9 8 8 8 9 8 8 7 6 8 11 11 11 11 10 11 12 11 10 10 9 9 12 11 10 9 10 9 10 12 12 12 12 12 12 12 13 12 12 12 12 13 14
2 2 2 4 3 2 4 4 2 3 2 0 3 2 3 5 5 6 5 4 2 1 5 3 4 4 5 2 1 5 5 3 8 12 12 13 12 13 11 10 9 10 9 9 8 7 8 10 7 5 7 6 6 6 7 8 8 8 8 8 8 8 6 9 11 10 10 9 10 10 11 11 10 10 8 8 10 9 9 10 9 9 10 10 11 11 12 12 12 11 11 12 12 11 12 13 14
3 1 2 3 3 2 2 2 3 2 0 1 4 5 3 7 6 7 6 6 5 3 4 8 1 5 4 3 3 5 5 6 9 10 12 12 11 12 11 9 10 9 9 9 8 7 7 8 9 6 7 6 6 6 6 7 6 7 8 8 8 8 7 7 11 10 9 8 9 11 10 11 10 9 8 6 6 6 9 9 9 8 10 11 11 12 11 11 11 11 11 11 11 11 11 11 12
0 1 2 3 1 2 3 2 3 1 2 5 5 4 5 7 8 7 8 3 4 4 4 8 2 3 3 3 4 4 6 8 9 10 12 12 11 10 9 9 9 10 9 9 9 8 7 8 8 8 7 7 6 6 6 6 6 5 6 7 7 7 6 7 10 9 8 8 9 10 10 9 8 8 8 6 8 10 12 10 6 5 9 10 10 10 11 11 11 10 10 10 10 11 11 11 11
1 1 1 2 1 0 2 1 1 4 4 5 2 5 7 5 3 3 7 6 6 5 4 1 2 2 1 1 5 6 6 11 10 11 10 12 11 10 11 9 10 9 9 10 9 9 8 7 8 8 10 9 9 7 6 5 6 5 5 5 4 4 5 5 6 6 7 7 10 9 7 8 8 7 6 7 9 10 9 8 6 5 8 10 11 10 11 10 10 9 9 9 10 11 10 10 10
2 1 2 2 2 2 1 3 3 4 4 6 4 8 5 1 1 2 6 6 4 5 3 1 1 2 3 6 5 7 9 11 11 11 11 11 11 11 11 9 9 9 9 10 9 9 9 8 8 8 9 9 9 8 8 7 5 6 6 4 4 4 4 6 6 7 8 9 10 9 8 8 7 6 6 8 8 7 7 7 6 4 6 12 10 9 9 9 9 9 9 9 10 10 10 10 10
3 3 1 3 2 3 4 2 1 2 3 5 4 1 6 3 2 3 1 4 4 2 2 4 2 2 4 2 6 6 12 12 11 10 11 12 11 10 10 9 9 9 8 9 9 9 9 8 7 7 8 8 8 7 7 9 8 7 7 5 5 5 5 7 6 7 8 9 9 9 9 8 6 6 6 7 8 7 6 8 7 4 3 10 10 9 8 8 8 9 9 9 10 9 10 11 10
1 1 4 1 4 4 4 3 6 3 6 4 5 7 9 6 2 2 2 2 3 3 4 0 2 0 2 3 4 3 9 10 11 11 11 11 9 9 8 7 7 7 6 8 9 9 10 9 9 7 8 8 8 7 6 7 8 8 6 6 5 5 6 7 8 7 7 7 8 8 8 7 6 6 6 6 6 6 8 9 6 4 6 6 8 8 8 8 9 9 9 9 9 10 10 11 9
2 4 2 4 2 5 5 5 5 3 3 7 8 9 7 7 5 3 3 4 1 3 5 2 1 5 1 3 2 1 6 11 12 13 12 11 9 10 8 9 8 9 8 8 10 10 10 9 10 10 8 9 8 6 5 5 6 7 8 7 6 6 6 7 6 5 6 6 7 7 5 5 5 5 4 6 5 8 7 7 6 5 6 6 8 8 8 8 8 9 9 9 9 9 6 6 6
2 2 3 3 2 2 2 1 3 1 3 7 7 6 4 3 9 5 5 5 4 5 5 4 5 5 4 2 1 4 6 12 13 13 15 16 13 13 10 9 10 10 10 9 9 11 10 9 10 11 10 9 8 7 5 6 7 7 7 7 6 6 7 6 6 6 6 6 7 6 5 4 4 4 4 3 4 6 7 6 6 6 6 6 5 6 7 8 8 8 7 7 7 4 3 4 4
1 3 5 2 1 2 1 0 3 2 1 7 8 6 3 2 1 4 4 4 3 8 6 6 8 9 10 6 4 9 7 12 13 14 15 15 14 14 13 12 11 11 11 10 10 9 10 10 11 11 11 11 9 8 7 6 6 7 6 6 6 6 7 6 5 6 5 5 5 5 4 4 5 4 6 7 8 6 6 7 8 8 7 7 6 6 8 9 10 8 6 4 4 3 3 3 3
3 3 4 2 1 3 2 2 2 0 2 4 6 6 4 3 1 5 5 3 7 8 8 7 10 11 10 9 8 12 11 12 13 14 14 15 14 12 11 11 10 10 9 9 8 9 11 11 10 10 11 10 10 9 8 7 8 7 6 7 7 6 7 7 6 5 5 5 5 4 3 5 4 4 6 5 5 5 6 5 5 5 5 5 4 5 5 4 4 4 4 4 3 2 2 2 2
5 1 5 1 2 2 3 1 3 0 2 4 7 10 6 5 2 5 6 7 2 2 1 7 5 2 8 10 10 12 14 14 15 15 16 16 16 15 12 11 11 10 8 9 10 10 11 11 11 9 10 10 10 9 9 7 8 8 7 7 7 7 7 6 6 5 4 5 5 4 4 5 5 4 5 5 4 5 5 5 4 4 5 5 6 4 4 4 3 3 3 3 2 1 1 1 0
6 1 0 1 1 1 2 1 1 2 3 6 8 4 6 7 4 0 5 11 2 3 3 3 4 1 3 7 11 12 14 16 16 18 17 17 16 15 13 11 12 12 10 11 10 10 10 11 11 10 10 10 12 10 7 8 8 8 8 8 8 8 7 7 6 6 5 5 5 5 5 5 5 5 5 5 5 5 5 5 5 5 5 5 5 5 4 3 3 3 3 2 1 1 1 1 1
4 4 4 3 0 2 1 1 2 2 2 3 2 3 4 6 7 2 6 11 3 4 2 3 1 2 6 10 11 14 16 17 19 17 17 16 15 15 12 12 10 10 11 12 11 11 10 13 12 11 10 10 10 9 9 9 8 7 8 7 7 7 7 7 7 6 7 5 5 6 6 5 5 5 5 5 5 5 5 5 4 4 4 4 4 3 4 3 3 2 2 2 2 2 2 1 2
5 4 4 3 0 2 2 2 3 0 1 2 2 6 1 2 2 1 8 8 5 2 2 2 4 5 5 7 11 11 12 12 13 13 13 12 12 12 13 10 10 10 12 13 11 12 13 11 13 12 11 11 10 10 10 9 9 9 8 8 9 7 8 7 7 7 6 7 6 5 6 5 5 5 5 5 5 5 5 5 5 5 4 4 4 4 4 4 3 3 3 3 3 3 3 3 2
5 3 6 4 3 3 3 5 3 1 2 1 6 3 3 1 2 7 11 4 2 3 0 1 4 5 7 8 10 11 12 14 13 13 14 11 10 12 14 12 12 13 13 12 12 12 12 13 13 14 13 11 10 11 10 9 9 9 9 9 8 7 8 8 8 7 7 7 7 7 6 6 5 5 5 5 5 6 5 5 5 5 5 4 5 4 4 4 4 4 3 3 3 3 3 2 3
6 7 5 6 2 2 1 1 3 2 2 1 3 4 2 1 1 5 4 3 3 2 3 0 4 7 7 7 8 9 10 12 13 10 9 11 11 13 14 14 15 14 12 13 13 12 11 12 13 12 12 10 10 11 11 11 10 10 10 9 9 9 9 9 8 8 8 8 7 8 8 6 5 5 5 6 5 5 6 6 6 5 5 5 5 5 4 4 4 4 4 4 4 4 4 3 4
8 11 9 7 4 5 3 4 3 2 3 2 1 3 1 2 2 7 3 4 3 3 4 3 3 5 5 6 7 7 7 7 8 10 14 14 12 12 14 13 15 14 14 14 12 11 12 13 14 13 13 11 10 11 10 10 10 10 10 10 9 9 8 8 8 9 9 8 7 8 8 7 6 5 6 6 6 6 6 6 5 5 5 5 5 4 5 4 4 4 3 2 2 3 3 3 4
8 7 6 3 3 4 3 3 2 4 2 1 0 2 5 5 9 3 3 3 3 1 3 3 5 4 3 4 5 6 7 7 8 10 13 13 11 10 13 13 12 13 10 12 12 12 13 13 13 14 13 12 12 11 11 10 11 10 10 9 8 7 8 8 9 10 9 8 5 6 6 7 5 5 5 6 6 5 5 6 6 6 5 5 5 5 5 4 4 4 4 3 4 4 4 4 3
5 2 3 5 4 4 2 0 1 2 2 1 3 6 6 10 12 4 2 3 3 3 4 4 4 4 4 4 5 6 6 7 9 12 10 10 10 11 12 11 12 11 9 9 12 13 11 9 10 10 13 13 13 12 11 10 9 9 10 11 9 9 7 8 7 9 10 9 9 7 6 6 5 5 5 6 6 6 6 6 6 6 5 5 5 5 5 5 6 5 5 5 5 6 6 6 6
7 3 3 4 6 5 3 1 2 5 1 1 2 8 6 2 1 3 3 1 3 5 4 3 3 4 4 5 5 6 8 10 12 12 11 10 9 8 10 10 11 12 9 9 13 14 13 11 9 10 11 14 12 13 11 11 9 10 10 10 11 10 9 9 8 7 8 8 8 10 9 8 8 7 6 6 6 6 6 6 7 6 6 6 6 6 6 6 6 7 6 7 6 7 8 7 8
3 8 7 1 7 3 2 3 2 5 3 1 4 7 10 7 1 5 3 0 3 6 5 4 3 4 4 4 6 6 7 8 10 11 11 11 10 9 10 12 10 11 13 11 11 11 13 13 12 12 12 14 14 14 14 14 12 10 9 9 8 11 10 10 10 10 10 9 10 10 10 10 10 11 10 10 8 8 8 8 9 9 8 7 7 7 7 7 7 6 7 8 8 8 7 7 6
1 4 4 7 2 3 4 1 1 4 2 1 6 6 3 3 3 2 2 3 1 4 6 6 6 5 4 5 5 5 6 8 9 11 12 11 11 10 10 11 11 12 11 12 11 12 12 13 13 14 14 14 14 14 14 14 13 13 13 12 11 9 9 10 10 10 10 10 10 10 12 12 12 12 12 11 10 9 9 10 9 9 7 8 8 8 8 8 8 7 7 8 8 7 8 8 6
6 1 2 1 8 6 5 4 1 2 3 8 3 5 10 1 2 2 2 1 2 4 5 5 5 4 4 3 5 6 7 7 9 10 12 12 10 12 11 10 10 10 11 12 11 11 12 12 12 13 13 13 12 12 13 13 12 13 12 11 11 11 12 11 10 9 12 11 10 10 10 10 8 9 9 8 9 9 10 9 8 9 8 7 6 7 8 8 8 8 9 8 8 8 7 8 8
10 8 4 3 2 4 1 5 3 1 0 5 4 8 13 10 6 5 3 3 3 7 7 7 7 6 5 5 5 7 7 8 11 8 6 7 10 10 10 10 10 10 9 11 11 10 10 10 10 12 13 13 13 12 12 13 13 11 10 10 11 12 11 11 12 11 10 9 9 12 13 11 9 9 8 8 9 10 7 5 6 7 7 8 8 9 9 9 9 9 10 8 7 7 7 7 6
9 11 6 5 7 7 6 2 2 2 6 7 7 9 11 12 10 9 5 3 5 8 7 7 7 6 7 7 7 6 7 10 6 2 3 4 5 6 7 7 9 9 9 9 11 11 11 11 11 11 13 14 13 12 11 11 11 9 9 10 10 11 11 8 8 9 8 8 7 8 11 11 10 8 11 11 8 6 5 5 6 6 7 8 8 9 9 9 10 9 10 8 7 5 3 3 3
8 5 5 5 5 2 3 1 3 2 2 9 9 9 11 12 11 11 8 4 5 9 11 10 8 7 7 7 8 8 8 10 3 2 2 4 5 5 6 6 7 9 10 10 10 12 12 12 11 15 12 13 12 12 12 12 12 12 11 9 10 9 10 12 10 9 8 8 9 8 9 9 10 9 12 13 11 8 8 7 6 6 5 6 7 9 9 8 7 5 5 4 6 6 5 4 2
10 7 6 3 3 4 1 2 2 1 3 1 1 5 13 14 13 12 10 4 10 11 12 11 10 8 6 7 8 8 7 3 4 5 5 5 4 4 4 4 6 9 10 11 13 13 11 12 13 12 10 11 13 13 12 12 12 11 10 11 12 9 8 8 11 11 12 9 11 11 10 9 11 12 11 12 11 12 14 13 10 9 9 8 9 7 4 4 3 3 4 5 6 8 7 6 5
2 5 4 3 3 2 2 2 1 1 1 4 2 6 10 11 11 11 11 11 9 8 8 8 5 6 6 5 6 6 6 8 4 7 5 5 4 3 4 4 5 8 6 9 10 9 10 11 11 11 10 11 11 12 12 12 12 11 11 9 9 10 10 9 8 5 6 8 11 12 12 12 12 11 8 9 7 12 13 10 9 9 10 9 8 8 6 7 8 10 10 9 7 7 7 4 7
5 4 5 5 2 5 4 4 3 1 2 3 2 7 10 10 9 11 11 8 5 3 5 8 7 9 10 8 4 4 7 7 8 7 6 3 3 3 3 4 5 4 5 6 7 9 8 10 10 10 10 10 9 10 11 12 11 10 11 10 9 9 6 4 8 10 10 11 13 11 11 9 9 11 9 8 9 11 9 10 9 9 10 10 10 10 10 11 10 11 11 10 8 6 7 6 8
2 1 3 4 3 2 2 3 3 1 1 1 4 7 10 5 7 7 3 0 4 5 4 6 7 8 8 7 8 8 11 10 9 8 7 6 5 5 3 2 2 4 6 6 6 7 6 9 9 9 9 9 9 9 11 11 9 8 6 1 1 1 0 3 3 4 6 8 9 11 11 9 9 9 10 13 10 12 11 9 8 7 8 9 10 11 11 12 12 11 10 9 11 11 8 6 7
3 4 3 3 5 8 4 6 6 3 4 3 3 4 4 1 4 6 2 3 3 2 2 3 2 3 3 4 5 4 6 7 9 9 6 3 4 4 3 3 4 4 5 5 5 7 7 7 8 8 8 8 8 9 10 10 10 10 8 7 7 8 9 8 11 12 9 8 8 8 8 10 12 11 11 10 10 10 10 11 8 8 8 7 8 9 10 8 8 8 11 12 13 13 12 9 8
4 4 4 3 6 7 8 7 3 3 3 2 3 6 3 1 3 4 1 3 7 2 3 2 1 0 1 2 2 3 4 5 5 6 6 6 5 4 4 3 2 3 3 2 4 6 7 7 6 7 7 6 7 8 10 10 11 11 12 12 10 10 10 10 9 10 11 10 10 12 12 13 13 13 12 10 10 11 11 11 11 8 8 8 8 8 8 7 6 9 10 11 12 11 11 10 10
6 2 5 8 9 10 8 8 3 2 3 1 0 2 5 6 6 2 1 4 6 4 3 1 1 1 0 1 2 3 3 3 3 3 2 2 2 2 3 2 2 1 1 2 3 4 6 7 6 7 6 6 6 7 10 11 10 10 11 11 10 11 11 10 9 9 10 9 9 11 10 10 10 11 12 12 12 10 10 12 12 12 12 12 8 10 11 11 11 9 8 8 7 7 11 11 8
1 2 3 5 4 5 7 4 3 2 1 3 3 2 3 5 3 2 2 4 4 4 3 1 2 1 1 2 3 3 3 3 2 1 1 1 1 2 2 2 2 1 1 1 2 3 4 4 6 6 6 6 6 9 10 11 10 9 10 10 11 10 10 9 7 7 7 8 10 10 10 10 10 9 9 11 11 13 10 8 7 8 10 11 9 11 9 9 10 9 9 9 10 10 11 10 10
1 4 6 7 6 6 3 3 3 2 1 6 5 2 4 10 3 4 2 3 9 5 2 3 1 2 2 3 4 3 2 2 1 1 1 1 1 1 1 2 3 2 2 1 2 2 3 4 5 6 5 5 6 9 9 10 11 9 10 10 11 9 8 9 7 7 7 8 9 9 9 9 8 8 10 11 9 9 9 8 10 11 9 8 7 10 11 11 12 12 13 13 12 11 8 9 12
11 7 11 7 6 3 3 4 1 1 4 4 5 2 3 5 2 4 4 4 2 3 3 2 2 2 2 3 3 3 3 2 2 2 2 2 2 2 2 4 4 3 2 3 3 3 4 5 6 7 6 5 6 8 9 10 10 9 9 9 10 9 8 8 6 6 6 5 6 8 8 8 7 8 7 8 8 7 7 6 7 7 6 8 8 6 8 9 9 10 10 10 10 10 8 9 11
6 4 6 9 5 1 3 2 1 3 4 4 2 0 3 6 3 2 2 1 2 2 7 6 4 4 4 4 3 3 3 2 1 2 4 3 4 4 3 5 5 4 4 4 4 3 4 4 5 7 5 5 5 6 7 7 7 7 7 7 8 8 8 6 7 8 8 8 8 8 8 6 7 7 8 7 8 8 8 8 9 9 8 7 7 5 6 7 8 9 9 10 10 11 9 10 8
2 6 9 6 3 1 3 2 4 7 4 2 2 2 3 13 10 4 3 3 4 5 2 4 2 2 3 4 4 3 2 2 2 3 4 4 4 4 5 5 5 5 4 4 4 3 3 4 5 6 5 5 5 4 5 5 5 5 5 5 5 5 6 7 8 8 8 8 7 8 8 8 7 8 8 8 10 12 11 11 12 10 7 7 7 7 6 6 6 6 7 9 11 12 9 13 12
5 11 9 6 4 4 4 2 2 4 1 1 1 1 6 5 7 14 15 8 5 4 5 1 1 2 3 3 2 2 2 2 3 3 4 4 4 4 4 5 5 5 5 4 4 3 3 3 3 5 5 3 3 4 4 5 5 5 5 5 5 5 6 6 7 7 7 7 7 8 8 8 8 8 8 9 9 10 10 10 10 11 12 10 8 8 7 6 6 7 7 8 9 9 8 11 11
7 3 5 4 5 4 5 4 5 3 1 2 1 1 3 3 1 4 2 4 2 1 1 0 3 3 4 3 3 1 3 4 3 4 5 5 5 5 5 5 5 5 5 4 3 3 3 4 4 5 5 3 3 3 2 3 2 2 2 2 3 3 4 4 4 4 4 6 6 7 7 7 8 8 8 9 9 9 9 9 9 10 11 11 12 12 11 10 10 9 8 9 8 7 9 9 10
2 2 3 1 4 1 1 1 1 2 2 2 2 5 2 4 3 4 2 2 5 2 1 1 2 1 1 2 4 5 5 6 4 6 6 6 5 5 5 5 5 5 5 4 5 4 4 4 4 5 5 3 3 2 2 1 1 1 0 1 2 3 3 3 4 3 4 4 5 5 6 6 6 6 6 7 8 6 9 10 9 10 10 10 10 11 11 10 11 11 11 11 12 8 9 12 10
5 4 4 1 5 9 6 3 2 1 1 3 3 5 5 5 11 4 3 3 3 3 4 4 4 3 4 5 5 6 5 5 4 5 5 6 5 5 5 5 5 6 6 6 6 5 6 5 5 6 5 4 4 4 3 2 1 1 2 2 2 2 3 3 3 4 4 4 4 5 5 5 7 7 6 5 8 8 8 9 10 10 10 9 9 10 10 10 10 10 11 11 10 8 9 11 8
7 4 7 3 1 2 1 2 1 0 4 2 3 6 6 2 4 2 2 5 5 5 5 5 4 6 7 6 6 6 5 4 4 5 5 5 5 6 6 5 6 6 6 6 6 5 5 4 4 5 4 5 4 3 3 2 2 2 2 1 1 1 1 2 3 4 3 4 4 4 4 4 4 5 7 7 7 8 8 8 7 7 8 9 10 9 9 10 10 10 10 11 12 11 9 8 9
2 1 4 5 3 4 1 1 1 3 2 3 4 3 5 6 7 2 4 7 8 8 6 7 8 8 9 8 7 5 4 5 5 5 5 5 5 5 6 7 6 7 6 6 5 5 5 5 5 5 6 5 4 3 3 3 2 2 1 2 2 2 2 2 2 3 3 3 4 4 5 5 5 5 5 6 7 7 7 8 8 9 8 9 10 10 10 10 10 11 11 10 11 11 11 11 12
3 2 3 3 3 1 6 3 0 1 3 1 2 3 5 7 7 4 5 11 13 10 6 9 11 12 11 9 8 7 6 5 5 5 5 5 5 5 5 5 6 5 6 5 6 5 7 6 6 6 5 5 5 5 4 4 3 3 3 2 3 3 2 2 3 3 3 3 4 5 5 5 5 5 5 6 6 6 7 7 7 8 8 9 9 9 9 10 9 11 11 10 9 11 11 12 11
4 5 6 2 0 3 2 2 2 3 3 3 2 2 3 4 6 10 7 2 2 7 8 7 9 11 11 10 9 7 6 6 5 5 5 5 6 5 5 5 4 4 4 5 5 7 6 5 7 7 7 7 7 5 5 4 3 3 4 5 5 4 5 4 4 4 4 4 5 5 5 5 5 5 5 5 6 6 7 7 8 8 8 8 9 9 9 9 9 10 10 11 10 9 11 11 10
5 8 11 11 8 5 5 5 4 0 2 3 3 6 0 2 2 7 4 2 2 4 7 9 9 11 11 9 7 7 7 6 6 5 5 5 6 6 5 4 3 4 6 7 6 6 7 8 6 5 6 6 6 6 5 4 4 4 5 5 5 5 4 4 4 4 5 5 5 5 5 5 5 5 4 5 6 5 6 7 7 8 8 9 9 10 10 9 10 10 11 9 9 10 11 11 9
Wind_Direction
24 93 177 153 222 242 233 21 231 117 236 132 110 204 106 67 1 165 159 135 177 107 107 128 141 153 222 342 349 51 13 351 9 306 66 82 136 147 130 123 138 137 145 155 144 141 152 145 145 135 119 114 109 114 114 112 111 108 108 111 114 108 96 109 99 95 95 94 93 93 88 87 86 88 87 85 83 83 86 89 90 87 86 85 84 82 85 87 87 87 86 86 85 84 83 84 80
19 109 174 211 222 230 169 311 353 189 227 177 156 195 114 150 195 194 159 176 50 114 122 128 157 110 351 297 305 146 86 34 13 58 80 87 144 148 118 171 149 148 147 153 147 144 146 143 129 174 129 120 117 118 116 112 106 107 110 102 102 107 101 85 79 92 94 96 100 94 91 90 90 91 92 91 89 86 85 89 92 92 91 91 88 84 82 86 88 90 88 86 86 85 84 82 84
45 242 155 228 104 12 110 262 240 89 229 205 123 182 106 179 196 166 128 88 98 109 129 116 118 181 260 226 189 285 93 35 88 75 87 135 142 167 160 170 157 148 148 152 147 144 146 142 151 180 133 127 120 120 117 111 105 102 105 109 112 109 109 97 90 89 100 99 93 93 92 88 88 94 97 94 92 90 90 84 83 87 90 90 92 90 89 86 80 78 88 94 91 87 87 87 87
281 18 263 196 154 252 206 196 285 233 228 34 222 142 179 187 168 121 76 96 112 128 134 143 174 72 298 226 15 170 95 131 110 129 124 162 150 146 157 163 155 155 145 151 150 150 150 138 174 181 132 127 121 119 115 111 108 104 99 105 103 107 101 93 96 96 101 101 100 95 91 89 93 97 102 102 100 99 91 94 99 103 98 90 88 92 92 87 87 89 89 87 90 92 91 91 90
123 55 308 267 246 135 305 28 349 262 236 162 58 140 187 187 137 121 101 118 118 115 149 139 202 91 350 332 358 309 96 75 153 169 135 142 106 141 153 157 161 156 155 155 154 155 141 143 185 172 136 127 123 120 114 113 111 107 101 98 101 105 108 103 96 97 102 100 99 98 92 92 94 99 99 101 103 105 105 95 102 96 96 99 98 94 91 88 90 92 93 93 92 93 94 93 93
228 86 29 308 306 34 176 189 179 230 38 334 255 131 175 166 148 129 125 131 114 49 30 179 331 139 189 61 350 4 126 166 139 164 151 145 150 146 152 158 161 161 157 154 155 158 147 151 189 159 139 133 128 124 120 119 116 110 107 101 100 102 106 101 97 95 101 104 102 97 95 94 97 104 107 105 102 103 101 99 105 109 110 99 94 92 90 92 94 92 90 94 93 92 93 92 92
256 169 61 90 114 247 279 232 226 266 89 323 7 91 164 149 141 133 137 138 134 61 160 188 213 131 225 125 173 64 30 51 157 156 174 142 143 150 152 162 160 162 158 158 158 147 145 153 178 151 139 134 129 125 125 121 118 114 111 109 108 109 101 108 105 101 101 104 107 103 98 96 100 104 110 109 111 107 103 104 101 99 96 95 96 96 93 94 97 95 96 97 97 96 95 94 92
132 258 42 241 101 274 209 291 261 257 91 281 1 325 127 149 154 159 152 173 165 204 154 176 216 263 46 300 256 107 64 259 38 152 145 149 147 151 159 161 165 159 162 159 161 141 140 152 170 139 138 136 131 129 125 121 115 117 117 118 116 101 96 99 99 101 105 107 108 105 100 100 103 108 112 114 116 108 100 105 100 95 92 95 93 92 93 92 93 95 96 96 93 91 89 90 91
15 49 223 206 177 71 198 231 83 45 33 212 241 272 343 169 185 163 155 115 99 251 151 166 152 231 124 167 118 96 124 147 154 159 151 151 153 155 160 163 165 163 161 159 157 153 156 140 147 133 130 135 137 128 126 121 120 121 124 125 123 119 108 106 99 97 93 100 105 107 105 105 108 114 118 115 107 96 95 94 104 100 102 104 100 93 91 95 95 97 97 98 96 94 95 93 91
88 306 144 54 30 203 296 162 205 131 216 91 295 155 179 165 190 217 155 155 119 160 107 88 118 289 140 149 128 177 123 119 148 159 157 155 154 156 159 164 164 164 162 157 161 170 157 142 134 129 131 134 132 129 126 124 127 129 133 133 133 119 106 107 105 104 106 102 104 108 108 108 112 116 118 119 104 105 110 106 91 99 103 93 92 94 94 94 96 98 98 97 97 97 99 99 94
151 64 359 201 190 219 223 140 191 146 192 171 240 209 178 168 185 157 152 124 102 152 122 148 196 207 191 116 49 68 80 129 164 160 159 157 157 159 160 164 161 166 164 159 165 170 160 162 130 131 133 134 123 128 127 133 138 143 141 141 136 132 119 121 114 108 111 110 108 109 113 113 113 116 120 116 113 117 109 106 107 108 102 103 97 95 95 96 96 95 96 95 97 100 101 99 97
163 182 200 206 210 247 153 151 134 107 179 228 151 159 178 171 177 158 164 174 163 183 173 181 52 149 170 139 149 131 124 161 176 160 161 155 160 162 159 162 164 166 164 163 166 173 167 163 164 138 135 128 131 126 136 140 148 149 149 144 143 139 131 119 113 117 118 121 119 116 119 118 118 117 114 89 45 104 112 99 94 94 102 99 103 101 99 98 96 93 95 99 100 104 104 103 93
28 230 173 209 50 248 55 218 122 41 159 187 151 158 155 172 187 179 163 96 156 169 195 192 27 261 187 163 68 125 178 172 169 164 160 159 158 158 160 163 167 165 158 166 170 172 173 175 171 168 147 136 141 140 144 146 148 145 151 146 147 141 129 123 127 126 124 126 119 124 120 114 109 113 112 87 48 77 97 94 98 100 107 112 108 104 101 97 92 94 99 104 105 103 106 100 92
194 224 192 198 15 75 193 41 101 188 165 114 75 121 177 188 189 154 147 184 176 203 59 76 185 270 276 136 147 171 171 158 154 163 159 159 156 157 160 162 165 166 164 172 169 173 179 185 182 174 166 171 165 148 143 143 148 146 136 140 134 126 126 91 83 94 94 99 115 116 110 104 110 107 97 73 72 84 89 89 91 122 112 100 99 99 99 95 97 101 103 105 109 106 101 92 86
117 232 81 97 128 219 184 217 155 200 125 146 124 157 176 296 35 169 188 207 155 51 81 350 336 235 101 204 148 180 153 157 159 162 159 155 156 154 156 158 163 167 171 176 174 174 185 189 190 181 184 178 178 172 173 151 145 135 131 129 128 122 108 85 90 97 102 112 119 122 110 98 89 84 76 75 67 77 88 84 69 53 112 101 101 101 99 100 107 108 109 104 104 106 95 81 78
116 157 72 184 161 230 153 220 18 231 123 157 132 34 177 98 279 195 120 348 86 47 240 168 188 305 343 300 70 75 130 148 157 158 151 151 152 149 152 160 165 167 172 179 179 183 180 185 195 189 188 191 184 180 174 171 139 137 134 130 123 120 108 99 97 90 102 113 111 113 110 115 116 102 96 88 70 72 81 96 74 29 89 108 106 106 109 114 115 114 113 114 110 104 86 77 74
172 274 180 162 195 219 144 196 172 169 101 130 132 175 179 173 150 325 341 262 181 139 213 36 197 89 313 36 54 57 130 142 152 156 152 152 154 156 155 160 165 171 173 182 190 187 181 183 192 191 196 196 190 186 183 179 138 136 136 120 119 112 113 110 102 104 106 113 124 121 141 149 144 139 152 126 96 97 102 105 99 63 45 85 105 115 121 125 124 123 122 117 112 97 83 73 63
222 188 207 201 55 213 155 185 184 353 151 159 176 190 191 163 173 141 184 139 68 117 221 144 194 242 304 86 31 337 145 153 160 159 162 158 162 163 166 170 171 179 181 185 192 188 186 187 192 194 198 198 195 190 190 178 152 185 176 165 167 145 125 131 149 150 142 135 135 157 166 156 153 157 138 143 123 126 116 107 106 78 68 75 110 125 130 130 130 126 121 125 116 113 128 122 101
136 105 226 215 182 83 221 117 140 196 73 151 163 183 247 159 164 168 201 158 170 201 215 214 234 212 169 180 97 163 167 164 168 172 171 174 176 174 176 175 179 179 186 187 191 191 188 187 193 195 194 197 197 198 195 185 178 191 191 178 166 178 163 175 171 163 172 162 170 175 172 160 158 154 151 98 99 81 102 102 97 84 76 82 102 119 130 132 127 119 116 112 112 126 147 131 130
43 218 195 214 127 70 235 221 146 69 90 144 158 166 240 95 246 136 220 143 161 221 199 198 229 214 201 155 151 162 182 173 178 181 183 184 185 182 182 180 183 186 186 189 188 192 191 192 193 196 196 192 194 199 198 192 187 198 195 187 181 188 181 189 183 182 179 178 178 186 176 150 162 155 91 115 125 146 118 90 79 80 74 63 100 116 87 79 87 83 87 120 141 167 150 146 143
127 213 213 132 128 192 117 217 12 94 320 167 151 120 199 168 164 197 150 195 221 232 232 218 209 214 188 155 158 164 180 183 189 192 192 193 194 193 191 186 185 185 186 185 190 192 197 195 194 196 197 195 198 198 200 196 192 198 196 197 195 193 192 195 190 187 181 181 186 193 168 156 172 156 167 166 185 161 164 165 167 174 166 157 182 150 160 148 174 158 157 203 165 162 159 150 163
138 338 23 80 149 192 80 120 46 19 315 166 138 157 180 105 163 203 175 217 194 220 224 238 275 33 168 160 164 170 182 188 192 196 198 197 196 196 196 192 190 189 182 190 194 193 197 199 198 197 195 199 199 200 202 194 190 198 200 201 199 200 196 197 197 193 181 186 192 187 169 173 181 173 173 179 184 166 176 176 181 182 177 179 187 184 181 182 177 175 184 193 160 134 90 106 175
185 134 185 101 359 35 75 122 95 208 156 168 166 135 104 181 166 274 229 228 65 71 76 13 340 276 100 128 151 174 185 193 196 200 201 201 202 202 197 192 190 194 191 199 192 196 195 199 200 201 200 199 202 202 201 201 201 199 202 203 203 204 200 199 201 201 195 186 192 185 189 187 189 183 179 184 187 182 179 183 183 183 188 188 196 201 194 176 187 184 190 172 143 140 140 139 138
279 153 144 143 275 59 7 96 95 187 236 158 51 81 182 173 201 126 227 232 113 112 69 359 328 157 143 152 173 179 188 193 199 202 203 205 204 203 200 198 196 196 200 201 196 196 194 198 199 200 202 201 203 203 203 202 205 208 205 193 203 210 207 205 203 206 199 197 198 197 203 194 193 189 185 187 188 195 187 183 181 182 189 188 189 199 194 182 189 193 188 155 164 167 172 183 180
194 149 187 115 236 69 59 98 145 214 141 52 140 170 55 275 345 123 241 234 207 170 29 93 123 144 169 174 176 184 192 201 206 204 207 213 213 214 216 215 210 204 207 205 203 202 199 199 197 199 200 202 202 202 208 208 206 209 208 204 207 195 210 211 208 202 206 208 200 206 203 202 199 196 190 190 190 195 188 185 188 191 187 183 186 192 189 188 191 196 191 188 189 193 186 195 196
207 85 133 140 104 83 81 109 94 89 105 177 159 139 66 63 344 258 248 134 42 345 279 134 159 164 183 191 186 185 192 199 199 201 206 208 213 214 215 216 215 213 210 207 207 208 205 200 202 202 201 201 202 201 205 209 208 209 211 209 209 187 212 216 213 207 210 210 209 207 212 215 205 202 193 194 192 195 190 187 195 193 193 188 191 195 193 198 198 195 197 195 196 200 204 196 212
106 112 110 119 89 110 14 106 95 33 93 313 193 149 114 137 274 243 89 50 357 203 199 106 210 205 189 189 191 197 197 199 198 197 200 210 213 214 214 214 216 216 212 212 210 210 206 203 205 205 205 204 204 206 206 210 209 212 214 211 211 203 210 212 215 216 216 212 212 209 213 220 212 207 199 194 198 196 196 194 200 193 198 194 198 201 187 203 201 208 202 205 206 206 211 190 219
116 122 109 84 101 76 101 100 86 224 114 353 273 130 74 121 160 252 100 44 360 220 185 183 217 217 197 197 196 199 205 200 193 194 203 203 208 208 208 209 211 213 213 213 213 212 209 209 208 207 208 206 210 210 206 208 208 214 214 218 214 204 204 213 213 218 218 216 212 210 214 214 217 210 205 196 203 199 200 200 199 197 204 193 198 198 188 198 206 200 185 213 215 217 211 205 214
137 154 143 105 150 132 24 119 62 299 105 10 313 192 217 164 237 211 63 354 14 251 202 188 215 225 226 210 208 207 207 194 194 204 210 209 207 207 210 207 205 208 213 214 212 212 214 211 213 212 210 206 209 211 209 210 209 209 214 215 218 210 199 205 215 217 220 218 184 192 207 213 206 215 206 205 204 205 202 201 204 203 204 193 193 185 178 182 192 192 188 193 206 214 216 211 205
140 36 124 132 173 199 82 82 43 227 82 343 258 251 246 211 221 112 90 339 311 247 226 202 205 213 219 216 220 221 204 198 207 214 211 211 208 207 212 204 204 206 204 207 211 213 210 212 210 213 215 211 209 215 213 211 211 205 211 221 217 213 211 208 203 210 211 216 217 203 195 194 201 210 210 206 205 209 206 209 210 205 200 186 185 179 194 197 204 202 199 197 206 214 215 215 208
165 135 231 209 174 201 75 344 21 189 65 270 226 251 255 94 75 40 50 355 282 258 232 204 217 217 216 219 225 226 220 216 220 220 219 216 214 217 216 210 206 205 206 207 210 210 206 209 209 214 208 216 207 215 213 217 212 208 204 213 218 217 216 219 215 206 201 200 206 218 201 197 196 198 200 199 200 199 199 210 216 214 195 186 190 192 199 202 207 205 199 209 211 217 221 215 212
112 148 198 153 219 138 100 84 334 216 130 249 200 258 258 266 158 96 40 32 203 253 255 251 235 230 223 221 229 232 233 224 231 233 228 225 223 225 219 217 211 207 211 210 210 207 210 209 208 215 208 214 216 218 219 219 218 215 205 204 208 212 217 219 218 217 216 213 216 217 201 202 203 203 202 205 207 202 200 203 211 211 191 188 196 190 197 205 207 208 207 210 215 220 223 223 215
236 245 144 185 214 159 178 127 15 354 131 142 232 257 47 218 20 87 50 66 72 252 262 264 267 252 228 230 228 236 241 237 236 234 231 225 224 222 224 221 216 212 211 211 207 206 213 210 211 216 217 214 216 216 217 222 222 220 217 211 207 201 209 216 224 225 218 215 218 219 217 207 207 210 207 200 205 207 210 213 214 205 186 194 193 193 197 205 204 207 212 211 222 227 223 230 226
192 321 172 59 196 163 207 77 176 6 248 191 192 240 241 68 173 199 185 220 323 280 267 259 256 255 248 242 241 239 239 240 237 229 226 217 223 221 223 224 222 216 216 217 213 208 211 210 211 217 219 219 220 219 217 215 220 227 225 221 210 212 211 215 217 216 222 222 222 218 215 214 207 208 208 206 215 213 212 209 199 180 172 190 204 205 208 205 210 209 219 213 215 224 226 226 232
177 181 155 167 309 239 271 182 120 246 142 228 179 240 257 256 249 243 217 168 256 269 269 275 275 270 267 255 248 244 243 241 242 234 222 211 222 225 225 223 222 220 219 216 217 215 211 212 212 215 218 220 220 221 222 225 224 220 222 223 223 225 232 231 228 222 223 223 219 221 216 207 200 203 202 209 226 234 228 217 209 192 183 194 206 206 206 203 206 211 217 212 204 217 229 229 233
186 168 160 128 169 199 211 92 69 274 197 221 214 231 247 253 259 263 237 182 249 271 278 268 257 254 255 252 252 245 239 246 242 203 236 238 227 225 221 218 219 219 220 218 216 213 213 213 214 219 220 220 221 222 221 222 224 219 220 217 214 213 213 217 226 232 221 219 217 213 211 213 210 202 210 213 212 226 235 230 221 196 200 208 211 211 209 202 198 196 207 210 201 210 244 240 218
120 127 140 168 171 104 25 64 58 287 241 230 231 244 265 272 268 269 267 163 256 266 262 257 252 243 237 238 238 240 237 244 63 308 248 237 240 233 224 220 220 219 220 217 212 214 213 212 208 218 214 216 219 219 219 219 220 223 225 225 220 211 209 214 220 211 206 210 207 205 212 208 206 204 214 217 213 203 210 221 218 210 201 213 220 223 220 213 201 177 170 182 205 212 222 208 159
148 149 167 155 228 180 58 95 55 55 254 174 100 258 258 260 264 264 263 222 250 248 255 251 252 244 236 235 245 239 250 291 286 264 236 221 220 207 211 217 212 213 217 212 216 215 214 212 214 215 211 212 217 220 220 221 224 222 220 222 224 216 212 214 219 224 228 232 232 228 212 207 209 214 212 207 207 206 217 216 204 203 198 208 222 227 212 215 181 184 181 201 205 217 226 178 151
70 162 155 144 194 61 141 93 107 59 195 255 97 269 262 257 260 259 249 244 243 232 243 265 282 269 257 245 250 262 269 269 257 256 245 241 222 217 205 208 215 225 223 214 220 217 214 212 217 214 211 209 213 217 223 225 225 226 224 228 227 232 232 231 228 224 226 230 236 238 236 232 227 226 210 207 208 220 223 207 202 200 200 199 211 222 216 214 208 206 202 211 203 207 224 171 174
136 122 157 191 92 177 193 151 143 64 306 348 325 292 278 268 254 251 245 243 258 268 276 270 263 263 262 265 294 301 285 277 265 253 253 223 214 214 201 219 219 214 223 221 212 213 215 218 218 214 213 211 213 212 223 228 227 227 225 232 230 234 237 242 243 242 237 231 234 232 237 231 213 219 212 204 215 220 211 214 209 202 200 192 196 204 206 213 204 206 200 206 206 204 206 213 193
322 255 131 118 157 220 347 123 131 92 170 272 262 265 271 226 247 241 149 311 274 258 240 239 244 245 266 283 276 249 258 265 270 265 255 244 244 242 229 186 190 217 218 217 210 208 213 217 215 210 211 210 210 209 214 223 220 219 219 181 198 125 317 230 218 232 220 224 228 222 223 223 224 209 207 210 208 223 217 214 216 202 196 200 205 210 210 208 202 201 193 193 199 212 213 211 196
173 242 231 153 178 142 103 114 148 185 209 79 345 281 258 133 236 252 318 325 239 175 258 216 226 253 239 256 261 261 248 250 258 264 264 261 258 263 254 234 216 218 220 214 214 216 216 217 212 207 210 209 206 204 204 212 214 217 201 197 193 206 229 223 230 235 232 227 227 229 222 219 232 244 246 231 215 212 218 222 222 221 207 202 205 217 219 203 190 189 198 204 207 207 217 202 209
186 203 164 133 141 123 131 139 186 205 243 70 322 246 270 100 277 182 263 312 282 209 229 273 312 260 259 274 296 295 289 278 259 259 259 251 236 235 234 203 192 214 208 192 211 218 217 220 209 204 206 206 200 197 197 207 210 213 213 213 214 216 225 234 233 237 239 241 243 244 246 246 245 242 239 228 217 206 215 223 224 220 216 209 207 218 225 215 208 211 207 210 215 209 207 226 212
209 67 150 115 127 139 158 151 200 39 45 142 173 350 275 290 256 54 11 279 270 245 163 116 106 123 13 337 337 326 314 296 284 281 261 242 234 221 176 123 170 214 210 202 205 200 204 205 199 198 203 201 190 197 200 203 206 208 211 214 218 223 226 235 235 237 239 246 245 245 246 248 248 246 247 245 247 244 232 229 215 215 218 224 201 211 215 216 217 209 201 207 213 214 205 216 215
228 204 271 127 130 112 131 149 121 49 339 235 149 339 274 248 265 118 343 288 222 207 123 128 124 90 37 4 8 352 340 332 288 287 59 68 126 147 161 132 77 123 146 178 171 174 183 186 187 188 193 189 188 195 197 201 206 206 207 211 218 225 231 237 241 242 239 242 247 250 249 249 245 242 244 247 244 242 235 233 238 232 228 223 209 219 218 215 217 215 210 209 210 211 208 212 221
240 147 98 98 93 72 80 118 114 142 203 248 154 358 247 271 208 228 74 279 265 238 110 136 163 29 359 356 7 19 28 28 24 334 342 48 79 87 72 87 93 55 48 65 96 123 140 153 163 168 172 179 186 193 197 199 203 205 207 212 217 223 228 239 245 244 243 249 252 253 253 252 251 247 246 248 250 256 259 249 241 237 224 226 223 220 216 213 213 213 214 211 208 214 215 216 221
132 191 107 91 66 72 75 53 53 151 239 231 60 337 280 291 219 219 184 212 267 107 123 152 156 132 64 26 15 15 17 27 37 42 58 58 40 65 90 93 87 83 70 81 89 105 130 146 157 158 162 171 180 188 193 196 201 204 211 215 221 228 233 239 238 239 237 237 243 247 247 249 250 250 246 243 239 243 245 245 247 246 240 226 222 210 218 221 224 225 224 223 215 203 203 206 220
158 148 127 112 69 110 99 70 333 213 239 89 21 347 274 219 247 241 283 341 235 165 151 147 117 67 38 26 25 23 17 27 49 86 84 90 102 88 102 97 94 96 93 83 86 101 121 134 142 140 148 159 167 177 189 193 198 207 216 221 226 232 238 239 243 246 245 243 240 245 247 248 246 247 248 248 245 242 244 248 249 255 256 255 254 248 234 228 227 225 225 220 220 214 212 217 223
191 140 154 154 144 142 186 174 210 208 234 70 16 246 221 237 250 333 279 273 214 227 167 122 71 57 40 37 25 16 8 31 72 81 93 83 85 95 93 95 96 81 74 74 75 85 99 117 139 134 135 148 154 160 179 182 192 204 215 223 231 237 239 240 247 252 252 253 253 250 247 246 247 244 241 244 246 246 248 249 251 250 249 250 252 247 240 233 230 226 227 228 229 224 212 215 219
193 167 164 159 158 172 211 174 351 333 1 48 69 352 267 311 277 246 247 228 185 203 240 308 1 342 354 358 354 11 41 50 64 77 74 78 76 75 72 79 78 76 68 62 60 66 76 93 101 116 107 108 123 149 167 175 187 197 202 214 225 232 241 246 251 258 261 262 266 267 262 262 264 256 255 248 249 251 251 251 252 253 254 254 249 246 242 228 218 225 228 229 227 227 224 222 225
206 6 186 193 167 159 188 169 204 220 113 100 224 191 235 167 178 42 16 34 29 2 27 350 281 287 296 307 282 261 109 86 86 79 75 76 70 66 74 73 73 72 77 80 84 91 111 106 111 118 120 122 145 148 162 173 160 171 202 226 243 250 258 258 257 261 266 264 268 271 271 270 269 274 271 273 267 257 257 258 257 255 253 250 250 250 250 249 247 245 239 233 231 219 219 220 226
26 254 23 171 209 4 193 62 348 113 145 154 188 232 309 243 56 239 198 270 265 208 206 185 258 202 208 176 146 125 113 109 101 105 95 78 71 74 77 75 70 69 65 63 60 51 62 61 63 61 68 69 76 89 91 91 84 69 75 244 249 246 255 261 264 253 257 263 269 273 274 267 266 266 267 269 271 260 260 262 259 257 259 260 258 257 257 254 251 248 246 244 245 224 220 217 223
186 139 206 161 20 100 111 96 64 346 344 247 137 266 250 270 283 247 130 155 166 149 160 161 164 129 156 139 133 126 119 115 111 100 98 96 89 72 68 72 75 69 62 56 46 35 41 48 56 64 60 56 55 50 63 77 100 162 165 211 224 230 236 253 274 291 291 285 275 271 269 277 284 280 279 274 275 270 265 264 266 264 262 260 260 260 260 259 258 256 253 251 245 231 227 230 224
109 220 184 115 256 42 151 203 97 246 242 244 116 229 239 167 251 72 120 162 144 181 140 145 134 147 149 144 141 135 126 112 99 91 82 83 84 86 78 68 66 72 80 79 72 58 54 52 70 82 76 77 65 70 74 87 102 114 119 117 83 322 315 299 294 303 305 299 291 280 277 278 275 286 290 287 283 278 272 262 255 261 259 262 262 260 257 257 258 259 260 258 255 253 244 241 239
296 355 126 171 162 202 189 138 189 174 216 247 204 278 284 227 228 93 183 184 178 190 145 144 150 158 151 153 144 131 127 129 126 117 108 95 83 74 76 81 78 79 80 85 92 90 87 80 69 74 76 71 73 69 86 83 76 80 64 48 28 24 2 340 331 320 309 300 301 303 300 298 298 296 289 295 294 292 285 280 275 271 270 269 266 264 261 257 253 254 253 252 251 249 250 250 250
68 193 133 353 289 261 165 204 69 201 229 122 244 113 252 180 219 228 234 194 188 171 146 174 163 165 160 158 156 151 150 140 130 119 106 99 85 72 70 74 77 81 88 90 92 90 82 79 78 80 79 73 67 62 62 71 62 71 78 84 69 49 35 14 355 348 332 330 325 323 321 316 316 316 308 308 303 296 293 288 285 281 279 276 273 269 266 261 259 255 257 255 250 247 249 248 249
131 174 171 161 41 324 346 36 181 214 196 200 263 250 231 202 214 215 209 121 153 160 176 173 170 165 157 156 154 156 152 145 135 127 119 106 96 90 80 78 85 88 84 78 76 73 68 65 61 52 55 50 50 40 46 49 52 61 68 63 57 46 35 24 14 11 352 350 342 330 328 325 317 307 316 310 305 301 298 293 288 284 281 279 276 272 267 263 256 255 256 259 260 253 251 252 252
192 173 184 184 142 154 179 215 81 2 217 215 173 247 279 266 118 216 227 136 193 201 180 177 172 165 154 154 161 158 152 143 137 126 115 108 101 93 90 79 64 69 64 64 56 65 62 60 55 50 60 47 44 36 32 32 37 39 53 63 65 62 47 35 23 22 11 359 350 341 335 324 313 314 318 306 299 301 299 296 293 287 283 278 275 273 270 264 259 255 256 253 255 253 255 255 251